Time,TemperatureF,DewpointF,PressureIn,WindDirection,WindDirectionDegrees,WindSpeedMPH,WindSpeedGustMPH,Humidity,HourlyPrecipIn,Conditions,Clouds,dailyrainin,SoftwareType,DateUTC
2013-06-25 00:01:00,62.7,58.8,30.04,NE,45,0.0,0.0,87,0.00,,,0.00,WUHU216HW,2013-06-25 04:01:00,
2013-06-25 00:02:00,62.7,58.8,30.04,NE,45,0.0,0.0,87,0.00,,,0.00,WUHU216HW,2013-06-25 04:02:00,
2013-06-25 00:08:00,62.7,59.2,30.04,NE,45,0.0,0.0,88,0.00,,,0.00,WUHU216HW,2013-06-25 04:08:00,
2013-06-25 00:13:00,62.9,59.3,30.04,NE,45,0.0,0.0,88,0.00,,,0.00,WUHU216HW,2013-06-25 04:13:00,
2013-06-25 00:18:00,63.1,59.9,30.04,NE,45,0.0,0.0,89,0.00,,,0.00,WUHU216HW,2013-06-25 04:18:00,
2013-06-25 00:23:00,63.1,59.9,30.04,NNE,23,1.3,3.1,89,0.00,,,0.00,WUHU216HW,2013-06-25 04:23:00,
2013-06-25 00:28:00,62.9,59.7,30.04,NNE,23,0.0,3.1,89,0.00,,,0.00,WUHU216HW,2013-06-25 04:28:00,
2013-06-25 00:33:00,62.4,59.1,30.04,North,0,0.0,1.3,89,0.00,,,0.00,WUHU216HW,2013-06-25 04:33:00,
2013-06-25 00:38:00,62.2,59.3,30.04,North,0,0.0,0.0,90,0.00,,,0.00,WUHU216HW,2013-06-25 04:38:00,
2013-06-25 00:43:00,62.2,59.3,30.04,North,0,0.0,0.0,90,0.00,,,0.00,WUHU216HW,2013-06-25 04:43:00,
2013-06-25 00:48:00,62.4,59.5,30.04,West,270,0.0,0.0,90,0.00,,,0.00,WUHU216HW,2013-06-25 04:48:00,
2013-06-25 00:53:00,62.6,59.7,30.04,West,270,0.0,0.0,90,0.00,,,0.00,WUHU216HW,2013-06-25 04:53:00,
2013-06-25 00:58:00,62.9,60.0,30.04,West,270,0.0,0.0,90,0.00,,,0.00,WUHU216HW,2013-06-25 04:58:00,
2013-06-25 01:04:00,62.9,60.0,30.04,West,270,0.0,0.0,90,0.00,,,0.00,WUHU216HW,2013-06-25 05:04:00,
2013-06-25 01:09:00,63.3,60.4,30.04,West,270,0.0,0.0,90,0.00,,,0.00,WUHU216HW,2013-06-25 05:09:00,
2013-06-25 01:14:00,63.5,60.9,30.04,West,270,0.0,0.0,91,0.00,,,0.00,WUHU216HW,2013-06-25 05:14:00,
2013-06-25 01:19:00,63.5,60.9,30.04,West,270,0.0,0.0,91,0.00,,,0.00,WUHU216HW,2013-06-25 05:19:00,
2013-06-25 01:24:00,63.3,60.4,30.04,West,270,0.0,0.0,90,0.00,,,0.00,WUHU216HW,2013-06-25 05:24:00,
2013-06-25 01:29:00,63.6,61.0,30.04,WNW,293,0.0,0.0,91,0.00,,,0.00,WUHU216HW,2013-06-25 05:29:00,
2013-06-25 01:34:00,63.8,61.2,30.03,WNW,293,0.0,0.0,91,0.00,,,0.00,WUHU216HW,2013-06-25 05:34:00,
2013-06-25 01:39:00,63.6,61.0,30.04,ENE,68,0.0,0.0,91,0.00,,,0.00,WUHU216HW,2013-06-25 05:39:00,
2013-06-25 01:44:00,63.1,60.2,30.04,ENE,68,0.0,0.0,90,0.00,,,0.00,WUHU216HW,2013-06-25 05:44:00,
2013-06-25 01:50:00,62.4,59.5,30.04,ENE,68,0.0,0.0,90,0.00,,,0.00,WUHU216HW,2013-06-25 05:50:00,
2013-06-25 01:55:00,61.5,58.4,30.03,SE,135,0.0,0.0,89,0.00,,,0.00,WUHU216HW,2013-06-25 05:55:00,
2013-06-25 02:00:00,60.9,57.7,30.03,NE,45,0.0,0.0,89,0.00,,,0.00,WUHU216HW,2013-06-25 06:00:00,
2013-06-25 02:05:00,60.9,58.1,30.04,WNW,293,0.0,0.0,90,0.00,,,0.00,WUHU216HW,2013-06-25 06:05:00,
2013-06-25 02:10:00,60.9,58.1,30.03,WNW,293,0.0,0.0,90,0.00,,,0.00,WUHU216HW,2013-06-25 06:10:00,
2013-06-25 02:15:00,60.9,58.1,30.03,WNW,293,0.0,0.0,90,0.00,,,0.00,WUHU216HW,2013-06-25 06:15:00,
2013-06-25 02:20:00,61.3,58.4,30.03,WNW,293,0.0,0.0,90,0.00,,,0.00,WUHU216HW,2013-06-25 06:20:00,
2013-06-25 02:25:00,61.5,58.6,30.04,WNW,293,0.0,0.0,90,0.00,,,0.00,WUHU216HW,2013-06-25 06:25:00,
2013-06-25 02:31:00,61.5,58.6,30.04,SSE,158,0.0,0.0,90,0.00,,,0.00,WUHU216HW,2013-06-25 06:31:00,
2013-06-25 02:36:00,61.3,58.4,30.03,South,180,0.0,0.0,90,0.00,,,0.00,WUHU216HW,2013-06-25 06:36:00,
2013-06-25 02:41:00,61.3,58.4,30.03,SSE,158,0.0,0.0,90,0.00,,,0.00,WUHU216HW,2013-06-25 06:41:00,
2013-06-25 02:46:00,61.3,58.7,30.03,SSE,158,0.0,0.0,91,0.00,,,0.00,WUHU216HW,2013-06-25 06:46:00,
2013-06-25 02:51:00,61.5,58.9,30.03,WSW,248,0.0,0.0,91,0.00,,,0.00,WUHU216HW,2013-06-25 06:51:00,
2013-06-25 02:56:00,61.8,59.4,30.03,WSW,248,0.0,0.0,91,0.00,,,0.00,WUHU216HW,2013-06-25 06:56:00,
2013-06-25 03:01:00,62.2,59.6,30.03,WNW,293,0.0,0.0,91,0.00,,,0.00,WUHU216HW,2013-06-25 07:01:00,
2013-06-25 03:06:00,62.4,59.8,30.03,West,270,0.0,0.0,91,0.00,,,0.00,WUHU216HW,2013-06-25 07:06:00,
2013-06-25 03:12:00,62.4,59.8,30.03,West,270,0.0,0.0,91,0.00,,,0.00,WUHU216HW,2013-06-25 07:12:00,
2013-06-25 03:17:00,62.6,60.0,30.03,West,270,0.0,0.0,91,0.00,,,0.00,WUHU216HW,2013-06-25 07:17:00,
2013-06-25 03:22:00,62.6,60.0,30.02,West,270,0.0,0.0,91,0.00,,,0.00,WUHU216HW,2013-06-25 07:22:00,
2013-06-25 03:27:00,62.6,60.0,30.03,West,270,0.0,0.0,91,0.00,,,0.00,WUHU216HW,2013-06-25 07:27:00,
2013-06-25 03:32:00,62.4,59.8,30.03,West,270,0.0,0.0,91,0.00,,,0.00,WUHU216HW,2013-06-25 07:32:00,
2013-06-25 03:37:00,62.4,59.8,30.03,West,270,0.0,0.0,91,0.00,,,0.00,WUHU216HW,2013-06-25 07:37:00,
2013-06-25 03:42:00,62.6,60.0,30.02,West,270,0.0,0.0,91,0.00,,,0.00,WUHU216HW,2013-06-25 07:42:00,
2013-06-25 03:47:00,62.7,60.1,30.02,West,270,0.0,0.0,91,0.00,,,0.00,WUHU216HW,2013-06-25 07:47:00,
2013-06-25 03:52:00,62.9,60.6,30.02,West,270,0.0,0.0,92,0.00,,,0.00,WUHU216HW,2013-06-25 07:52:00,
2013-06-25 03:57:00,62.9,60.6,30.02,West,270,0.0,0.0,92,0.00,,,0.00,WUHU216HW,2013-06-25 07:57:00,
2013-06-25 04:02:00,62.7,60.1,30.02,South,180,0.0,0.0,91,0.00,,,0.00,WUHU216HW,2013-06-25 08:02:00,
2013-06-25 04:07:00,62.4,59.8,30.01,South,180,0.0,0.0,91,0.00,,,0.00,WUHU216HW,2013-06-25 08:07:00,
2013-06-25 04:13:00,62.4,59.8,30.01,West,270,0.0,0.0,91,0.00,,,0.00,WUHU216HW,2013-06-25 08:13:00,
2013-06-25 04:18:00,62.4,59.8,30.00,WNW,293,0.0,0.0,91,0.00,,,0.00,WUHU216HW,2013-06-25 08:18:00,
2013-06-25 04:23:00,62.7,60.1,30.01,West,270,0.0,0.0,91,0.00,,,0.00,WUHU216HW,2013-06-25 08:23:00,
2013-06-25 04:28:00,62.7,60.1,30.00,South,180,2.0,3.1,91,0.00,,,0.00,WUHU216HW,2013-06-25 08:28:00,
2013-06-25 04:33:00,62.7,60.1,30.01,West,270,0.0,3.1,91,0.00,,,0.00,WUHU216HW,2013-06-25 08:33:00,
2013-06-25 04:38:00,62.7,60.1,30.01,West,270,0.0,0.0,91,0.00,,,0.00,WUHU216HW,2013-06-25 08:38:00,
2013-06-25 04:43:00,62.9,60.3,30.01,West,270,0.0,0.0,91,0.00,,,0.00,WUHU216HW,2013-06-25 08:43:00,
2013-06-25 04:48:00,63.1,60.5,30.01,West,270,0.0,0.0,91,0.00,,,0.00,WUHU216HW,2013-06-25 08:48:00,
2013-06-25 04:53:00,63.1,60.5,30.01,SSE,158,0.0,0.0,91,0.00,,,0.00,WUHU216HW,2013-06-25 08:53:00,
2013-06-25 04:59:00,63.3,60.4,30.01,SSE,158,0.0,0.0,90,0.00,,,0.00,WUHU216HW,2013-06-25 08:59:00,
2013-06-25 05:04:00,63.3,60.4,30.00,SSE,158,0.0,0.0,90,0.00,,,0.00,WUHU216HW,2013-06-25 09:04:00,
2013-06-25 05:09:00,63.1,60.2,30.01,SSE,158,0.0,0.0,90,0.00,,,0.00,WUHU216HW,2013-06-25 09:09:00,
2013-06-25 05:10:00,62.9,60.0,30.00,SSE,158,0.0,0.0,90,0.00,,,0.00,WUHU216HW,2013-06-25 09:10:00,
2013-06-25 05:15:00,62.7,59.9,30.01,SW,225,0.0,0.0,90,0.00,,,0.00,WUHU216HW,2013-06-25 09:15:00,
2013-06-25 05:21:00,62.9,60.3,30.02,SW,225,0.0,0.0,91,0.00,,,0.00,WUHU216HW,2013-06-25 09:21:00,
2013-06-25 05:26:00,62.9,60.3,30.02,WSW,248,0.0,0.0,91,0.00,,,0.00,WUHU216HW,2013-06-25 09:26:00,
2013-06-25 05:31:00,63.1,60.5,30.02,WNW,293,0.0,0.0,91,0.00,,,0.00,WUHU216HW,2013-06-25 09:31:00,
2013-06-25 05:36:00,63.1,60.5,30.02,WNW,293,0.0,0.0,91,0.00,,,0.00,WUHU216HW,2013-06-25 09:36:00,
2013-06-25 05:41:00,63.3,60.7,30.02,West,270,0.0,0.0,91,0.00,,,0.00,WUHU216HW,2013-06-25 09:41:00,
2013-06-25 05:46:00,63.3,60.7,30.01,NNE,23,0.0,0.0,91,0.00,,,0.00,WUHU216HW,2013-06-25 09:46:00,
2013-06-25 05:51:00,63.5,60.9,30.01,North,0,0.0,0.0,91,0.00,,,0.00,WUHU216HW,2013-06-25 09:51:00,
2013-06-25 05:56:00,63.6,61.0,30.01,NE,45,0.0,0.0,91,0.00,,,0.00,WUHU216HW,2013-06-25 09:56:00,
2013-06-25 06:01:00,63.3,60.4,30.02,NE,45,0.0,0.0,90,0.00,,,0.00,WUHU216HW,2013-06-25 10:01:00,
2013-06-25 06:06:00,63.1,60.2,30.02,NE,45,0.0,0.0,90,0.00,,,0.00,WUHU216HW,2013-06-25 10:06:00,
2013-06-25 06:12:00,62.9,60.0,30.02,NE,45,0.0,0.0,90,0.00,,,0.00,WUHU216HW,2013-06-25 10:12:00,
2013-06-25 06:17:00,62.7,59.9,30.02,NE,45,0.0,0.0,90,0.00,,,0.00,WUHU216HW,2013-06-25 10:17:00,
2013-06-25 06:22:00,63.1,60.2,30.03,NE,45,0.0,0.0,90,0.00,,,0.00,WUHU216HW,2013-06-25 10:22:00,
2013-06-25 06:27:00,63.1,60.2,30.03,NE,45,0.0,0.0,90,0.00,,,0.00,WUHU216HW,2013-06-25 10:27:00,
2013-06-25 06:32:00,63.3,60.4,30.02,NE,45,0.0,0.0,90,0.00,,,0.00,WUHU216HW,2013-06-25 10:32:00,
2013-06-25 06:37:00,63.5,61.0,30.03,NE,45,0.0,0.0,91,0.00,,,0.00,WUHU216HW,2013-06-25 10:37:00,
2013-06-25 06:42:00,64.2,61.6,30.03,NE,45,0.0,0.0,91,0.00,,,0.00,WUHU216HW,2013-06-25 10:42:00,
2013-06-25 06:47:00,64.5,61.9,30.04,SSE,158,0.0,0.0,91,0.00,,,0.00,WUHU216HW,2013-06-25 10:47:00,
2013-06-25 06:52:00,64.7,61.6,30.03,SSE,158,0.0,0.0,90,0.00,,,0.00,WUHU216HW,2013-06-25 10:52:00,
2013-06-25 06:57:00,64.2,60.9,30.03,South,180,0.0,0.0,89,0.00,,,0.00,WUHU216HW,2013-06-25 10:57:00,
2013-06-25 07:03:00,64.2,61.3,30.04,SSE,158,0.0,0.0,90,0.00,,,0.00,WUHU216HW,2013-06-25 11:03:00,
2013-06-25 07:08:00,64.5,61.6,30.03,SSE,158,0.0,0.0,90,0.00,,,0.00,WUHU216HW,2013-06-25 11:08:00,
2013-06-25 07:13:00,64.5,61.3,30.03,SSE,158,0.0,0.0,89,0.00,,,0.00,WUHU216HW,2013-06-25 11:13:00,
2013-06-25 07:18:00,64.2,60.6,30.03,SSE,158,0.0,0.0,88,0.00,,,0.00,WUHU216HW,2013-06-25 11:18:00,
2013-06-25 07:23:00,64.0,60.4,30.03,SSE,158,0.0,0.0,88,0.00,,,0.00,WUHU216HW,2013-06-25 11:23:00,
2013-06-25 07:28:00,64.2,60.9,30.03,SSE,158,0.0,0.0,89,0.00,,,0.00,WUHU216HW,2013-06-25 11:28:00,
2013-06-25 07:33:00,64.7,61.5,30.03,SSE,158,0.0,0.0,89,0.00,,,0.00,WUHU216HW,2013-06-25 11:33:00,
2013-06-25 07:38:00,65.3,61.9,30.04,SSE,158,0.0,0.0,89,0.00,,,0.00,WUHU216HW,2013-06-25 11:38:00,
2013-06-25 07:44:00,65.6,61.9,30.03,SSE,158,1.3,1.3,88,0.00,,,0.00,WUHU216HW,2013-06-25 11:44:00,
2013-06-25 07:49:00,65.8,61.8,30.03,SSE,158,2.9,3.5,87,0.00,,,0.00,WUHU216HW,2013-06-25 11:49:00,
2013-06-25 07:54:00,65.4,61.1,30.03,South,180,3.5,4.4,86,0.00,,,0.00,WUHU216HW,2013-06-25 11:54:00,
2013-06-25 07:59:00,65.4,61.4,30.03,SSE,158,2.6,4.6,87,0.00,,,0.00,WUHU216HW,2013-06-25 11:59:00,
2013-06-25 08:04:00,65.8,61.8,30.04,South,180,3.3,4.6,87,0.00,,,0.00,WUHU216HW,2013-06-25 12:04:00,
2013-06-25 08:09:00,66.5,62.4,30.04,SSE,158,0.0,3.3,88,0.00,,,0.00,WUHU216HW,2013-06-25 12:09:00,
2013-06-25 08:14:00,66.7,62.7,30.04,SSE,158,2.0,2.4,87,0.00,,,0.00,WUHU216HW,2013-06-25 12:14:00,
2013-06-25 08:19:00,67.1,63.0,30.04,South,180,0.0,2.4,87,0.00,,,0.00,WUHU216HW,2013-06-25 12:19:00,
2013-06-25 08:24:00,67.6,63.6,30.04,SW,225,0.0,2.0,87,0.00,,,0.00,WUHU216HW,2013-06-25 12:24:00,
2013-06-25 08:29:00,67.4,63.4,30.04,South,180,0.0,0.0,87,0.00,,,0.00,WUHU216HW,2013-06-25 12:29:00,
2013-06-25 08:34:00,67.2,63.2,30.04,SW,225,0.0,0.0,87,0.00,,,0.00,WUHU216HW,2013-06-25 12:34:00,
2013-06-25 08:39:00,67.2,63.2,30.04,South,180,0.0,0.0,87,0.00,,,0.00,WUHU216HW,2013-06-25 12:39:00,
2013-06-25 08:44:00,67.2,63.2,30.04,SSW,203,3.5,3.5,87,0.00,,,0.00,WUHU216HW,2013-06-25 12:44:00,
2013-06-25 08:49:00,67.6,63.9,30.04,West,270,0.0,3.5,88,0.00,,,0.00,WUHU216HW,2013-06-25 12:49:00,
2013-06-25 08:54:00,67.8,64.1,30.05,SE,135,0.0,3.5,88,0.00,,,0.00,WUHU216HW,2013-06-25 12:54:00,
2013-06-25 08:59:00,68.5,64.4,30.04,SSE,158,0.0,0.0,87,0.00,,,0.00,WUHU216HW,2013-06-25 12:59:00,
2013-06-25 09:04:00,69.0,65.0,30.04,SSW,203,8.5,8.5,87,0.00,,,0.00,WUHU216HW,2013-06-25 13:04:00,
2013-06-25 09:09:00,69.2,64.8,30.04,South,180,0.0,8.5,86,0.00,,,0.00,WUHU216HW,2013-06-25 13:09:00,
2013-06-25 09:14:00,69.6,65.1,30.04,South,180,0.0,0.0,86,0.00,,,0.00,WUHU216HW,2013-06-25 13:14:00,
2013-06-25 09:20:00,69.6,65.1,30.04,NNW,338,0.0,0.0,86,0.00,,,0.00,WUHU216HW,2013-06-25 13:20:00,
2013-06-25 09:25:00,69.9,65.5,30.04,SW,225,3.1,3.1,86,0.00,,,0.00,WUHU216HW,2013-06-25 13:25:00,
2013-06-25 09:30:00,70.3,65.5,30.04,SSE,158,0.0,3.1,85,0.00,,,0.00,WUHU216HW,2013-06-25 13:30:00,
2013-06-25 09:35:00,70.5,65.7,30.04,SW,225,0.0,3.1,85,0.00,,,0.00,WUHU216HW,2013-06-25 13:35:00,
2013-06-25 09:40:00,71.2,66.4,30.03,SW,225,0.0,0.0,85,0.00,,,0.00,WUHU216HW,2013-06-25 13:40:00,
2013-06-25 09:45:00,72.6,67.5,30.02,SSW,203,0.0,0.0,84,0.00,,,0.00,WUHU216HW,2013-06-25 13:45:00,
2013-06-25 09:50:00,74.4,68.6,30.02,SSW,203,4.0,4.0,82,0.00,,,0.00,WUHU216HW,2013-06-25 13:50:00,
2013-06-25 09:55:00,75.3,68.5,30.02,West,270,0.0,4.0,79,0.00,,,0.00,WUHU216HW,2013-06-25 13:55:00,
2013-06-25 10:00:00,76.2,68.9,30.03,North,0,0.0,4.0,78,0.00,,,0.00,WUHU216HW,2013-06-25 14:00:00,
2013-06-25 10:05:00,77.3,69.5,30.03,SSW,203,0.0,0.0,77,0.00,,,0.00,WUHU216HW,2013-06-25 14:05:00,
2013-06-25 10:10:00,77.7,69.1,30.02,SW,225,4.6,4.6,75,0.00,,,0.00,WUHU216HW,2013-06-25 14:10:00,
2013-06-25 10:15:00,77.7,68.7,30.03,West,270,0.0,4.6,74,0.00,,,0.00,WUHU216HW,2013-06-25 14:15:00,
2013-06-25 10:20:00,77.3,68.3,30.02,NW,315,0.0,4.6,74,0.00,,,0.00,WUHU216HW,2013-06-25 14:20:00,
2013-06-25 10:25:00,76.8,67.8,30.02,South,180,0.0,0.0,74,0.00,,,0.00,WUHU216HW,2013-06-25 14:25:00,
2013-06-25 10:30:00,76.2,67.7,30.02,NW,315,0.0,0.0,75,0.00,,,0.00,WUHU216HW,2013-06-25 14:30:00,
2013-06-25 10:35:00,75.3,67.2,30.02,SW,225,0.0,0.0,76,0.00,,,0.00,WUHU216HW,2013-06-25 14:35:00,
2013-06-25 10:40:00,75.3,67.2,30.02,West,270,0.0,0.0,76,0.00,,,0.00,WUHU216HW,2013-06-25 14:40:00,
2013-06-25 10:46:00,75.5,67.8,30.02,West,270,0.0,0.0,77,0.00,,,0.00,WUHU216HW,2013-06-25 14:46:00,
2013-06-25 10:51:00,76.1,68.3,30.01,West,270,0.0,0.0,77,0.00,,,0.00,WUHU216HW,2013-06-25 14:51:00,
2013-06-25 10:56:00,76.8,69.0,30.02,WNW,293,0.0,0.0,77,0.00,,,0.00,WUHU216HW,2013-06-25 14:56:00,
2013-06-25 11:01:00,77.7,69.1,30.02,WSW,248,0.0,0.0,75,0.00,,,0.00,WUHU216HW,2013-06-25 15:01:00,
2013-06-25 11:06:00,78.6,69.5,30.02,West,270,0.0,0.0,74,0.00,,,0.00,WUHU216HW,2013-06-25 15:06:00,
2013-06-25 11:11:00,79.1,69.7,30.02,West,270,0.0,0.0,73,0.00,,,0.00,WUHU216HW,2013-06-25 15:11:00,
2013-06-25 11:16:00,80.2,70.4,30.02,NW,315,0.0,0.0,72,0.00,,,0.00,WUHU216HW,2013-06-25 15:16:00,
2013-06-25 11:21:00,81.1,70.4,30.02,NNW,338,0.0,0.0,70,0.00,,,0.00,WUHU216HW,2013-06-25 15:21:00,
2013-06-25 11:27:00,82.2,70.9,30.03,SSE,158,0.0,0.0,69,0.00,,,0.00,WUHU216HW,2013-06-25 15:27:00,
2013-06-25 11:32:00,84.3,71.7,30.03,WNW,293,0.0,0.0,66,0.00,,,0.00,WUHU216HW,2013-06-25 15:32:00,
2013-06-25 11:37:00,86.5,71.5,30.03,NNE,23,0.0,0.0,61,0.00,,,0.00,WUHU216HW,2013-06-25 15:37:00,
2013-06-25 11:42:00,86.5,71.0,30.03,South,180,6.0,6.0,60,0.00,,,0.00,WUHU216HW,2013-06-25 15:42:00,
2013-06-25 11:47:00,85.2,70.3,30.04,North,0,0.0,6.0,61,0.00,,,0.00,WUHU216HW,2013-06-25 15:47:00,
2013-06-25 11:52:00,84.0,70.0,30.03,West,270,0.0,6.0,63,0.00,,,0.00,WUHU216HW,2013-06-25 15:52:00,
2013-06-25 11:57:00,83.8,69.8,30.03,WNW,293,0.0,0.0,63,0.00,,,0.00,WUHU216HW,2013-06-25 15:57:00,
2013-06-25 12:02:00,83.3,69.3,30.03,NNE,23,0.0,0.0,63,0.00,,,0.00,WUHU216HW,2013-06-25 16:02:00,
2013-06-25 12:07:00,82.4,69.3,30.02,WSW,248,0.0,0.0,65,0.00,,,0.00,WUHU216HW,2013-06-25 16:07:00,
2013-06-25 12:12:00,82.7,68.3,30.02,SE,135,2.0,2.0,62,0.00,,,0.00,WUHU216HW,2013-06-25 16:12:00,
2013-06-25 12:17:00,80.9,65.8,30.02,SSE,158,3.3,3.3,60,0.00,,,0.00,WUHU216HW,2013-06-25 16:17:00,
2013-06-25 12:22:00,81.6,66.4,30.02,SE,135,3.8,3.8,60,0.00,,,0.00,WUHU216HW,2013-06-25 16:22:00,
2013-06-25 12:28:00,80.6,65.4,30.02,SSE,158,3.3,3.8,60,0.00,,,0.00,WUHU216HW,2013-06-25 16:28:00,
2013-06-25 12:33:00,82.0,66.2,30.02,South,180,10.7,10.7,59,0.00,,,0.00,WUHU216HW,2013-06-25 16:33:00,
2013-06-25 12:38:00,80.7,65.6,30.01,SSE,158,6.4,10.7,60,0.00,,,0.00,WUHU216HW,2013-06-25 16:38:00,
2013-06-25 12:43:00,78.8,66.0,30.02,SE,135,0.0,9.3,65,0.00,,,0.00,WUHU216HW,2013-06-25 16:43:00,
2013-06-25 12:48:00,79.7,66.4,30.02,SSE,158,6.7,9.3,64,0.00,,,0.00,WUHU216HW,2013-06-25 16:48:00,
2013-06-25 12:53:00,77.3,64.2,30.02,SSE,158,7.6,7.6,64,0.00,,,0.00,WUHU216HW,2013-06-25 16:53:00,
2013-06-25 12:58:00,74.8,63.9,30.02,South,180,0.8,8.9,69,0.00,,,0.00,WUHU216HW,2013-06-25 16:58:00,
2013-06-25 13:03:00,74.3,64.3,30.02,SSE,158,4.6,8.9,71,0.00,,,0.00,WUHU216HW,2013-06-25 17:03:00,
2013-06-25 13:08:00,74.1,64.5,30.02,SSE,158,0.0,5.3,72,0.00,,,0.00,WUHU216HW,2013-06-25 17:08:00,
2013-06-25 13:13:00,75.0,65.7,30.01,SSE,158,0.0,4.6,73,0.00,,,0.00,WUHU216HW,2013-06-25 17:13:00,
2013-06-25 13:18:00,77.7,67.2,30.00,SW,225,0.0,0.0,70,0.00,,,0.00,WUHU216HW,2013-06-25 17:18:00,
2013-06-25 13:23:00,79.8,68.3,30.01,South,180,0.0,0.0,68,0.00,,,0.00,WUHU216HW,2013-06-25 17:23:00,
2013-06-25 13:28:00,82.2,69.1,30.01,West,270,0.0,0.0,65,0.00,,,0.00,WUHU216HW,2013-06-25 17:28:00,
2013-06-25 13:34:00,86.1,70.7,30.00,NW,315,0.0,0.0,60,0.00,,,0.00,WUHU216HW,2013-06-25 17:34:00,
2013-06-25 13:39:00,89.0,71.2,30.01,West,270,0.0,0.0,56,0.00,,,0.00,WUHU216HW,2013-06-25 17:39:00,
2013-06-25 13:44:00,88.8,70.5,30.01,South,180,0.0,0.0,55,0.00,,,0.00,WUHU216HW,2013-06-25 17:44:00,
2013-06-25 13:49:00,88.7,70.4,30.00,SW,225,0.8,0.8,55,0.00,,,0.00,WUHU216HW,2013-06-25 17:49:00,
2013-06-25 13:54:00,88.8,70.5,30.00,West,270,0.0,0.8,55,0.00,,,0.00,WUHU216HW,2013-06-25 17:54:00,
2013-06-25 14:00:00,89.2,70.3,30.00,SSW,203,0.0,0.0,54,0.00,,,0.00,WUHU216HW,2013-06-25 18:00:00,
2013-06-25 14:05:00,89.6,70.7,29.99,SE,135,0.0,0.6,54,0.00,,,0.00,WUHU216HW,2013-06-25 18:05:00,
2013-06-25 14:10:00,90.1,70.6,29.99,North,0,0.0,4.9,53,0.00,,,0.00,WUHU216HW,2013-06-25 18:10:00,
2013-06-25 14:15:00,91.0,71.4,29.99,SSE,158,3.8,4.9,53,0.00,,,0.00,WUHU216HW,2013-06-25 18:15:00,
2013-06-25 14:20:00,91.9,71.1,29.99,SSW,203,3.8,3.8,51,0.00,,,0.00,WUHU216HW,2013-06-25 18:20:00,
2013-06-25 14:25:00,93.0,71.6,30.00,WSW,248,3.1,3.8,50,0.00,,,0.00,WUHU216HW,2013-06-25 18:25:00,
2013-06-25 14:30:00,93.5,71.4,29.99,SW,225,3.5,3.8,49,0.00,,,0.00,WUHU216HW,2013-06-25 18:30:00,
2013-06-25 14:35:00,91.9,70.6,29.99,NNW,338,0.0,4.0,50,0.00,,,0.00,WUHU216HW,2013-06-25 18:35:00,
2013-06-25 14:40:00,91.4,70.1,29.99,NW,315,1.3,4.0,50,0.00,,,0.00,WUHU216HW,2013-06-25 18:40:00,
2013-06-25 14:45:00,91.2,70.5,29.99,SSE,158,1.1,3.5,51,0.00,,,0.00,WUHU216HW,2013-06-25 18:45:00,
2013-06-25 14:50:00,88.8,68.4,29.99,West,270,0.0,2.0,51,0.00,,,0.00,WUHU216HW,2013-06-25 18:50:00,
2013-06-25 14:55:00,87.6,67.8,29.99,SSW,203,0.8,2.0,52,0.00,,,0.00,WUHU216HW,2013-06-25 18:55:00,
2013-06-25 15:01:00,87.4,67.6,29.99,SW,225,0.0,1.3,52,0.00,,,0.00,WUHU216HW,2013-06-25 19:01:00,
2013-06-25 15:06:00,86.5,66.8,29.99,SSW,203,0.0,0.0,52,0.00,,,0.00,WUHU216HW,2013-06-25 19:06:00,
2013-06-25 15:11:00,86.3,67.1,29.99,North,0,0.0,0.0,53,0.00,,,0.00,WUHU216HW,2013-06-25 19:11:00,
2013-06-25 15:16:00,88.1,68.3,29.99,ENE,68,0.0,3.8,52,0.00,,,0.00,WUHU216HW,2013-06-25 19:16:00,
2013-06-25 15:21:00,88.5,68.6,29.99,SSW,203,0.0,3.8,52,0.00,,,0.00,WUHU216HW,2013-06-25 19:21:00,
2013-06-25 15:26:00,88.3,67.9,29.99,North,0,0.0,4.6,51,0.00,,,0.00,WUHU216HW,2013-06-25 19:26:00,
2013-06-25 15:31:00,86.3,67.7,29.99,NNE,23,0.0,4.6,54,0.00,,,0.00,WUHU216HW,2013-06-25 19:31:00,
2013-06-25 15:36:00,85.1,68.1,29.99,NW,315,0.0,0.0,57,0.00,,,0.00,WUHU216HW,2013-06-25 19:36:00,
2013-06-25 15:41:00,86.1,69.1,29.99,NNE,23,0.0,0.0,57,0.00,,,0.00,WUHU216HW,2013-06-25 19:41:00,
2013-06-25 15:46:00,87.0,68.9,29.99,NE,45,0.6,0.6,55,0.00,,,0.00,WUHU216HW,2013-06-25 19:46:00,
2013-06-25 15:51:00,86.5,67.3,29.99,ENE,68,0.0,2.2,53,0.00,,,0.00,WUHU216HW,2013-06-25 19:51:00,
2013-06-25 15:56:00,83.3,66.4,29.98,NE,45,0.0,3.8,57,0.00,,,0.00,WUHU216HW,2013-06-25 19:56:00,
2013-06-25 16:01:00,83.4,66.0,29.99,ENE,68,0.0,3.8,56,0.00,,,0.00,WUHU216HW,2013-06-25 20:01:00,
2013-06-25 16:06:00,84.5,66.0,29.99,NE,45,0.0,1.5,54,0.00,,,0.00,WUHU216HW,2013-06-25 20:06:00,
2013-06-25 16:12:00,84.9,65.8,29.99,ENE,68,0.0,1.5,53,0.00,,,0.00,WUHU216HW,2013-06-25 20:12:00,
2013-06-25 16:17:00,84.3,65.9,29.99,SE,135,0.0,1.1,54,0.00,,,0.00,WUHU216HW,2013-06-25 20:17:00,
2013-06-25 16:22:00,83.8,65.9,29.98,SE,135,0.0,0.0,55,0.00,,,0.00,WUHU216HW,2013-06-25 20:22:00,
2013-06-25 16:27:00,83.4,66.0,29.98,SE,135,0.0,0.0,56,0.00,,,0.00,WUHU216HW,2013-06-25 20:27:00,
2013-06-25 16:32:00,82.5,65.1,29.98,South,180,1.5,2.2,56,0.00,,,0.00,WUHU216HW,2013-06-25 20:32:00,
2013-06-25 16:37:00,82.2,65.8,29.98,SE,135,0.0,2.2,58,0.00,,,0.00,WUHU216HW,2013-06-25 20:37:00,
2013-06-25 16:42:00,83.1,66.7,29.98,SE,135,0.0,1.5,58,0.00,,,0.00,WUHU216HW,2013-06-25 20:42:00,
2013-06-25 16:47:00,84.0,67.1,29.98,SE,135,1.1,1.1,57,0.00,,,0.00,WUHU216HW,2013-06-25 20:47:00,
2013-06-25 16:52:00,82.9,65.5,29.98,ENE,68,0.0,1.1,56,0.00,,,0.00,WUHU216HW,2013-06-25 20:52:00,
2013-06-25 16:57:00,81.5,64.2,29.98,SSE,158,1.3,1.3,56,0.00,,,0.00,WUHU216HW,2013-06-25 20:57:00,
2013-06-25 17:02:00,80.0,64.4,29.98,SE,135,1.1,2.0,59,0.00,,,0.00,WUHU216HW,2013-06-25 21:02:00,
2013-06-25 17:07:00,79.3,64.7,29.98,ESE,113,2.2,2.2,61,0.00,,,0.00,WUHU216HW,2013-06-25 21:07:00,
2013-06-25 17:12:00,78.6,64.1,29.98,ESE,113,0.0,2.2,61,0.00,,,0.00,WUHU216HW,2013-06-25 21:12:00,
2013-06-25 17:17:00,77.5,63.4,29.99,SE,135,0.0,2.2,62,0.00,,,0.00,WUHU216HW,2013-06-25 21:17:00,
2013-06-25 17:22:00,75.3,62.3,29.99,SSE,158,0.0,1.5,64,0.00,,,0.00,WUHU216HW,2013-06-25 21:22:00,
2013-06-25 17:27:00,75.0,63.2,29.98,SSE,158,2.0,2.0,67,0.00,,,0.00,WUHU216HW,2013-06-25 21:27:00,
2013-06-25 17:33:00,74.4,62.7,29.99,ESE,113,0.0,2.0,67,0.00,,,0.00,WUHU216HW,2013-06-25 21:33:00,
2013-06-25 17:38:00,73.5,62.8,29.98,SSE,158,0.0,2.0,69,0.00,,,0.00,WUHU216HW,2013-06-25 21:38:00,
2013-06-25 17:43:00,73.5,63.3,29.98,SE,135,0.0,2.0,70,0.00,,,0.00,WUHU216HW,2013-06-25 21:43:00,
2013-06-25 17:48:00,73.9,63.6,29.99,SSE,158,2.4,2.4,70,0.00,,,0.00,WUHU216HW,2013-06-25 21:48:00,
2013-06-25 17:53:00,73.4,63.5,29.98,SE,135,0.0,2.6,71,0.00,,,0.00,WUHU216HW,2013-06-25 21:53:00,
2013-06-25 17:58:00,73.4,63.5,29.98,East,90,0.0,2.6,71,0.00,,,0.00,WUHU216HW,2013-06-25 21:58:00,
2013-06-25 18:03:00,73.7,63.8,29.98,SSE,158,0.0,0.0,71,0.00,,,0.00,WUHU216HW,2013-06-25 22:03:00,
2013-06-25 18:08:00,74.1,63.7,29.99,SE,135,0.0,0.0,70,0.00,,,0.00,WUHU216HW,2013-06-25 22:08:00,
2013-06-25 18:13:00,72.6,62.4,29.98,SE,135,0.0,0.0,70,0.00,,,0.00,WUHU216HW,2013-06-25 22:13:00,
2013-06-25 18:18:00,72.3,62.4,29.98,ESE,113,0.0,0.0,71,0.00,,,0.00,WUHU216HW,2013-06-25 22:18:00,
2013-06-25 18:23:00,72.3,62.8,29.98,SSE,158,0.0,0.0,72,0.00,,,0.00,WUHU216HW,2013-06-25 22:23:00,
2013-06-25 18:28:00,72.3,62.8,29.98,NNE,23,0.0,0.0,72,0.00,,,0.00,WUHU216HW,2013-06-25 22:28:00,
2013-06-25 18:33:00,72.3,62.8,29.98,NNE,23,0.0,0.0,72,0.00,,,0.00,WUHU216HW,2013-06-25 22:33:00,
2013-06-25 18:38:00,72.3,63.1,29.98,SE,135,0.0,0.0,73,0.00,,,0.00,WUHU216HW,2013-06-25 22:38:00,
2013-06-25 18:44:00,73.2,64.0,29.98,SE,135,0.0,0.0,73,0.00,,,0.00,WUHU216HW,2013-06-25 22:44:00,
2013-06-25 18:49:00,74.1,64.5,29.97,SE,135,0.0,0.0,72,0.00,,,0.00,WUHU216HW,2013-06-25 22:49:00,
2013-06-25 18:54:00,74.6,64.6,29.97,SE,135,0.0,0.0,71,0.00,,,0.00,WUHU216HW,2013-06-25 22:54:00,
2013-06-25 18:59:00,74.6,64.4,29.97,SE,135,0.0,0.0,70,0.00,,,0.00,WUHU216HW,2013-06-25 22:59:00,
2013-06-25 19:04:00,74.1,63.7,29.98,SSE,158,0.0,0.0,70,0.00,,,0.00,WUHU216HW,2013-06-25 23:04:00,
2013-06-25 19:09:00,73.5,63.3,29.97,ESE,113,0.0,0.0,70,0.00,,,0.00,WUHU216HW,2013-06-25 23:09:00,
2013-06-25 19:14:00,73.0,63.1,29.97,NE,45,0.0,0.0,71,0.00,,,0.00,WUHU216HW,2013-06-25 23:14:00,
2013-06-25 19:19:00,72.3,62.4,29.97,SSE,158,0.0,0.0,71,0.00,,,0.00,WUHU216HW,2013-06-25 23:19:00,
2013-06-25 19:24:00,71.2,62.1,29.97,SSE,158,0.0,0.0,73,0.00,,,0.00,WUHU216HW,2013-06-25 23:24:00,
2013-06-25 19:30:00,70.7,61.9,29.97,WNW,293,0.0,0.0,74,0.00,,,0.00,WUHU216HW,2013-06-25 23:30:00,
2013-06-25 19:35:00,70.8,62.5,29.97,West,270,0.0,0.0,75,0.00,,,0.00,WUHU216HW,2013-06-25 23:35:00,
2013-06-25 19:40:00,71.2,63.2,29.97,West,270,0.0,0.0,76,0.00,,,0.00,WUHU216HW,2013-06-25 23:40:00,
2013-06-25 19:45:00,71.4,64.1,29.97,West,270,0.0,0.0,77,0.00,,,0.00,WUHU216HW,2013-06-25 23:45:00,
2013-06-25 19:50:00,72.1,64.5,29.96,West,270,0.0,0.0,77,0.00,,,0.00,WUHU216HW,2013-06-25 23:50:00,
2013-06-25 19:55:00,72.6,65.0,29.96,West,270,0.0,0.0,77,0.00,,,0.00,WUHU216HW,2013-06-25 23:55:00,
2013-06-25 20:00:00,73.0,65.6,29.96,WNW,293,0.0,0.0,77,0.00,,,0.00,WUHU216HW,2013-06-26 00:00:00,
2013-06-25 20:05:00,73.0,64.6,29.97,NNE,23,1.3,1.3,75,0.00,,,0.00,WUHU216HW,2013-06-26 00:05:00,
2013-06-25 20:10:00,71.7,63.4,29.97,North,0,0.0,1.3,75,0.00,,,0.00,WUHU216HW,2013-06-26 00:10:00,
2013-06-25 20:16:00,71.4,63.4,29.96,NE,45,0.0,1.3,76,0.00,,,0.00,WUHU216HW,2013-06-26 00:16:00,
2013-06-25 20:21:00,71.2,63.6,29.96,NNE,23,0.0,0.0,77,0.00,,,0.00,WUHU216HW,2013-06-26 00:21:00,
2013-06-25 20:26:00,70.5,62.9,29.97,NNE,23,0.0,0.0,77,0.00,,,0.00,WUHU216HW,2013-06-26 00:26:00,
2013-06-25 20:31:00,69.6,62.0,29.96,North,0,0.0,0.0,77,0.00,,,0.00,WUHU216HW,2013-06-26 00:31:00,
2013-06-25 20:36:00,69.6,62.0,29.97,West,270,0.0,0.0,77,0.00,,,0.00,WUHU216HW,2013-06-26 00:36:00,
2013-06-25 20:41:00,69.2,62.8,29.97,West,270,0.0,0.0,80,0.00,,,0.00,WUHU216HW,2013-06-26 00:41:00,
2013-06-25 20:46:00,69.4,63.3,29.97,West,270,0.0,0.0,81,0.00,,,0.00,WUHU216HW,2013-06-26 00:46:00,
2013-06-25 20:51:00,69.9,64.1,29.97,West,270,0.0,0.0,82,0.00,,,0.00,WUHU216HW,2013-06-26 00:51:00,
2013-06-25 20:56:00,70.5,65.0,29.97,West,270,0.0,0.0,83,0.00,,,0.00,WUHU216HW,2013-06-26 00:56:00,
2013-06-25 20:59:00,70.5,65.0,29.97,WSW,248,0.0,0.0,83,0.00,,,0.00,WUHU216HW,2013-06-26 00:59:00,
2013-06-25 21:04:00,70.7,65.5,29.97,WSW,248,0.0,0.0,84,0.00,,,0.00,WUHU216HW,2013-06-26 01:04:00,
2013-06-25 21:09:00,70.7,65.5,29.97,WSW,248,0.0,0.0,84,0.00,,,0.00,WUHU216HW,2013-06-26 01:09:00,
2013-06-25 21:14:00,70.7,65.9,29.97,WSW,248,0.0,0.0,85,0.00,,,0.00,WUHU216HW,2013-06-26 01:14:00,
2013-06-25 21:19:00,70.5,65.7,29.97,WSW,248,0.0,0.0,85,0.00,,,0.00,WUHU216HW,2013-06-26 01:19:00,
2013-06-25 21:24:00,70.3,65.2,29.97,West,270,0.0,0.0,84,0.00,,,0.00,WUHU216HW,2013-06-26 01:24:00,
2013-06-25 21:29:00,69.9,64.8,29.97,West,270,0.0,0.0,84,0.00,,,0.00,WUHU216HW,2013-06-26 01:29:00,
2013-06-25 21:34:00,69.8,65.0,29.97,West,270,0.0,0.0,85,0.00,,,0.00,WUHU216HW,2013-06-26 01:34:00,
2013-06-25 21:39:00,69.4,64.6,29.97,West,270,0.0,0.0,85,0.00,,,0.00,WUHU216HW,2013-06-26 01:39:00,
2013-06-25 21:44:00,68.7,64.0,29.97,NNE,23,0.8,0.8,85,0.00,,,0.00,WUHU216HW,2013-06-26 01:44:00,
2013-06-25 21:50:00,67.6,62.3,29.97,NNE,23,3.3,3.3,83,0.00,,,0.00,WUHU216HW,2013-06-26 01:50:00,
2013-06-25 21:55:00,66.2,61.1,29.97,NNE,23,1.3,3.3,84,0.00,,,0.00,WUHU216HW,2013-06-26 01:55:00,
2013-06-25 22:00:00,65.1,60.1,29.97,NNE,23,0.0,1.3,84,0.00,,,0.00,WUHU216HW,2013-06-26 02:00:00,
2013-06-25 22:05:00,64.7,59.8,29.98,NNE,23,0.0,1.1,84,0.00,,,0.00,WUHU216HW,2013-06-26 02:05:00,
2013-06-25 22:10:00,64.5,59.6,29.98,NNE,23,0.0,0.0,84,0.00,,,0.00,WUHU216HW,2013-06-26 02:10:00,
2013-06-25 22:15:00,64.5,60.3,29.99,West,270,0.0,6.4,86,0.00,,,0.00,WUHU216HW,2013-06-26 02:15:00,
2013-06-25 22:20:00,64.5,60.3,29.99,WSW,248,0.0,6.4,86,0.00,,,0.00,WUHU216HW,2013-06-26 02:20:00,
2013-06-25 22:25:00,64.5,60.3,29.99,North,0,0.0,0.0,86,0.00,,,0.00,WUHU216HW,2013-06-26 02:25:00,
2013-06-25 22:30:00,64.9,60.9,29.99,West,270,0.0,0.0,87,0.00,,,0.00,WUHU216HW,2013-06-26 02:30:00,
2013-06-25 22:36:00,65.1,61.1,29.99,West,270,0.0,0.0,87,0.00,,,0.00,WUHU216HW,2013-06-26 02:36:00,
2013-06-25 22:41:00,65.4,61.4,29.99,West,270,0.0,0.0,87,0.00,,,0.00,WUHU216HW,2013-06-26 02:41:00,
2013-06-25 22:46:00,65.6,61.6,29.99,WSW,248,0.0,0.0,87,0.00,,,0.00,WUHU216HW,2013-06-26 02:46:00,
2013-06-25 22:51:00,66.0,61.9,29.99,WSW,248,0.0,0.0,87,0.00,,,0.00,WUHU216HW,2013-06-26 02:51:00,
2013-06-25 22:56:00,66.3,62.6,29.99,West,270,0.0,0.0,88,0.00,,,0.00,WUHU216HW,2013-06-26 02:56:00,
2013-06-25 23:01:00,66.5,62.8,29.99,West,270,0.0,0.0,88,0.00,,,0.00,WUHU216HW,2013-06-26 03:01:00,
2013-06-25 23:06:00,66.7,63.0,29.99,West,270,0.0,0.0,88,0.00,,,0.00,WUHU216HW,2013-06-26 03:06:00,
2013-06-25 23:11:00,66.7,63.3,29.99,West,270,0.0,0.0,89,0.00,,,0.00,WUHU216HW,2013-06-26 03:11:00,
2013-06-25 23:17:00,66.7,63.3,29.99,West,270,0.0,0.0,89,0.00,,,0.00,WUHU216HW,2013-06-26 03:17:00,
2013-06-25 23:22:00,66.7,63.3,29.99,West,270,0.0,0.0,89,0.00,,,0.00,WUHU216HW,2013-06-26 03:22:00,
2013-06-25 23:27:00,66.7,63.3,29.99,West,270,0.0,0.0,89,0.00,,,0.00,WUHU216HW,2013-06-26 03:27:00,
2013-06-25 23:32:00,66.9,63.5,29.99,West,270,0.0,0.0,89,0.00,,,0.00,WUHU216HW,2013-06-26 03:32:00,
2013-06-25 23:37:00,66.7,63.3,29.99,NNE,23,0.0,0.0,89,0.00,,,0.00,WUHU216HW,2013-06-26 03:37:00,
2013-06-25 23:42:00,66.2,62.8,29.99,NNE,23,0.0,0.0,89,0.00,,,0.00,WUHU216HW,2013-06-26 03:42:00,
2013-06-25 23:47:00,65.8,62.4,29.99,West,270,0.0,0.0,89,0.00,,,0.00,WUHU216HW,2013-06-26 03:47:00,
2013-06-25 23:52:00,66.0,62.6,29.99,West,270,0.0,0.0,89,0.00,,,0.00,WUHU216HW,2013-06-26 03:52:00,
2013-06-25 23:57:00,66.3,63.3,29.99,West,270,0.0,0.0,90,0.00,,,0.00,WUHU216HW,2013-06-26 03:57:00,